Wind_Speed
20 13 8 2 5 6 7 7 12 14 14 12 12 10 5 4 7 9 12 14 17 18 14 13 13 13 14 13 15 17 21 22 22
18 9 10 7 10 4 6 9 9 12 13 11 8 7 8 7 6 8 11 12 14 18 18 15 14 13 14 15 14 16 18 21 24
11 8 9 10 11 9 8 7 8 11 12 12 12 10 11 12 10 9 10 12 14 17 18 18 17 16 16 15 16 16 17 20 23
6 10 15 20 11 4 6 4 6 9 10 12 13 13 15 16 13 12 12 14 16 16 18 18 18 18 18 18 17 16 16 18 19
14 21 18 18 14 3 3 1 3 5 7 10 12 14 15 16 13 14 16 18 18 17 17 18 20 20 21 20 19 18 18 18 20
11 15 18 16 7 3 6 5 5 5 8 11 14 17 17 17 15 15 16 17 17 18 18 19 22 23 23 23 23 20 20 21 21
12 9 10 7 2 2 5 3 8 13 15 15 17 21 19 19 18 16 18 18 19 18 19 21 21 22 25 28 26 23 22 22 22
12 17 12 12 13 11 5 9 14 15 19 20 20 21 21 22 21 16 15 18 22 21 21 22 20 24 25 28 28 27 24 23 25
10 17 18 23 18 10 10 16 25 23 27 24 21 22 21 21 21 17 16 17 20 20 24 24 21 22 23 22 28 29 26 24 25
11 18 16 15 17 15 18 25 27 28 31 28 19 21 23 20 19 17 17 19 21 21 25 25 23 25 23 22 24 28 27 24 25
6 4 4 9 17 21 24 28 32 32 34 31 25 21 24 20 18 15 16 18 17 20 23 24 23 22 20 20 22 22 24 24 24
17 13 14 16 21 27 28 32 35 39 35 31 31 23 23 23 21 19 19 19 19 20 22 22 22 21 20 16 18 20 22 22 24
14 19 18 20 25 30 34 36 39 35 31 30 33 29 25 26 25 24 22 22 21 22 22 20 19 19 19 18 17 18 19 21 22
21 22 22 27 30 35 38 41 35 29 29 31 31 32 30 29 30 27 24 25 26 22 23 20 19 19 19 17 17 18 18 17 19
24 25 25 28 34 37 40 41 36 32 31 32 31 32 33 31 31 31 29 27 25 30 21 26 21 20 22 19 17 19 21 21 22
25 26 30 36 42 43 43 41 38 34 31 32 33 31 32 33 32 31 32 33 30 28 27 28 26 23 23 24 22 22 22 25 23
45 41 39 41 43 45 45 42 37 35 32 30 33 35 34 34 34 34 34 36 37 35 32 33 32 28 26 25 25 28 28 28 27
34 36 38 41 43 43 43 44 41 38 38 37 35 34 36 37 38 38 38 40 45 38 39 37 39 36 33 29 28 32 30 30 32
42 42 40 42 40 39 41 43 45 45 44 44 44 42 40 39 42 44 45 47 49 54 43 41 66 34 38 34 30 29 34 33 33
40 41 40 39 40 42 42 42 44 48 50 53 52 50 48 45 45 46 48 49 49 49 48 41 48 52 32 36 31 31 32 33 33
Wind_Direction
294 310 337 100 269 310 316 327 328 325 336 335 332 329 324 298 301 304 302 296 287 287 284 280 283 269 262 255 245 242 239 241 241
291 266 276 271 253 260 304 313 317 320 329 338 338 341 326 320 311 321 313 301 291 284 285 282 278 271 263 259 251 247 244 239 240
298 242 264 252 268 243 260 290 304 312 320 323 319 321 323 321 321 321 319 310 300 286 284 285 282 273 269 266 261 254 245 243 248
320 256 253 240 281 288 248 264 296 301 303 306 307 312 313 310 312 308 306 298 299 286 281 283 282 279 272 270 270 263 253 245 244
287 276 253 250 289 298 135 213 306 311 323 334 318 312 307 307 314 312 306 298 302 293 270 273 276 276 275 272 268 266 265 257 254
325 279 248 258 288 91 84 46 2 344 346 346 344 336 322 307 306 311 309 301 302 304 296 281 273 273 274 274 272 269 264 259 257
282 234 232 239 248 66 57 20 346 340 330 325 326 329 328 322 317 310 307 308 310 307 306 298 289 280 275 271 269 270 269 257 250
251 225 238 288 261 270 250 357 341 341 338 317 307 309 314 318 318 318 306 306 305 306 306 297 290 284 274 270 268 264 262 259 248
272 242 243 290 283 280 324 322 328 327 323 323 293 290 297 305 317 321 313 316 306 297 300 296 295 287 279 275 263 257 258 256 248
254 258 295 262 254 286 304 313 319 319 316 314 299 290 281 292 298 314 298 306 297 294 307 309 297 294 294 280 265 248 250 251 250
330 279 322 272 285 300 306 314 317 318 318 304 302 293 275 280 288 294 291 293 292 286 294 302 293 288 278 267 264 252 248 244 249
271 277 290 303 301 300 305 308 312 313 308 297 296 286 271 270 271 280 290 290 288 286 290 299 290 286 286 276 265 261 251 240 249
260 280 286 291 297 299 303 303 304 302 298 288 286 285 276 272 274 275 277 287 290 281 278 295 287 283 282 275 265 251 244 249 255
268 286 286 291 297 299 297 294 295 292 291 286 279 284 285 280 279 279 278 283 279 271 279 284 288 284 274 262 256 246 241 234 243
272 277 282 290 293 292 292 292 292 289 286 286 284 279 281 283 281 279 279 275 277 280 275 275 278 277 273 256 245 244 235 231 240
260 267 276 282 285 289 291 291 290 287 284 283 285 283 283 283 285 283 280 282 275 270 271 270 267 275 274 267 248 239 240 238 234
257 260 270 280 284 286 290 290 287 285 285 282 280 283 284 285 286 285 283 275 268 262 255 253 245 248 256 261 259 255 252 250 242
280 278 276 276 277 280 284 286 287 286 286 285 282 278 281 284 285 284 281 276 270 260 257 258 266 246 241 247 261 260 261 262 258
277 275 274 273 277 279 278 279 283 287 288 288 287 285 283 281 281 282 283 282 284 289 305 306 324 262 254 247 252 272 268 268 264
274 276 275 276 276 276 276 277 278 281 284 286 287 286 285 283 281 279 280 283 289 295 306 313 309 315 255 242 252 257 260 266 268
Height
5935 5938 5935 5933 5933 5930 5929 5927 5928 5927 5926 5924 5923 5922 5922 5922 5922 5920 5919 5919 5918 5918 5918 5918 5918 5918 5917 5918 5920 5920 5923 5924 5926
5934 5936 5937 5934 5932 5929 5928 5927 5926 5925 5924 5923 5922 5922 5922 5920 5920 5918 5917 5916 5916 5916 5916 5915 5916 5916 5916 5916 5917 5917 5919 5920 5921
5931 5932 5934 5934 5932 5928 5928 5927 5925 5924 5923 5922 5922 5921 5920 5919 5917 5916 5915 5914 5914 5913 5913 5913 5913 5914 5914 5913 5913 5914 5914 5915 5916
5930 5929 5929 5931 5931 5927 5926 5925 5924 5923 5921 5920 5920 5918 5918 5916 5914 5912 5912 5911 5911 5911 5910 5910 5909 5910 5910 5910 5910 5910 5910 5911 5912
5928 5929 5928 5927 5928 5924 5923 5923 5923 5921 5919 5918 5916 5915 5914 5912 5910 5909 5908 5907 5907 5907 5907 5906 5905 5905 5905 5905 5905 5906 5906 5908 5908
5922 5924 5924 5924 5924 5922 5922 5921 5921 5920 5918 5916 5915 5912 5910 5908 5907 5906 5905 5906 5905 5904 5903 5903 5902 5900 5901 5901 5901 5902 5903 5904 5905
5917 5919 5921 5922 5921 5921 5921 5920 5919 5916 5914 5913 5911 5910 5908 5905 5903 5904 5903 5902 5901 5900 5898 5897 5897 5896 5895 5895 5896 5897 5897 5898 5899
5913 5916 5917 5920 5919 5919 5918 5918 5917 5915 5913 5910 5909 5907 5905 5903 5900 5900 5899 5897 5896 5894 5892 5890 5890 5890 5889 5889 5890 5891 5891 5892 5893
5912 5913 5915 5916 5914 5915 5915 5913 5912 5910 5909 5908 5906 5904 5902 5900 5897 5895 5893 5892 5890 5887 5885 5876 5881 5883 5882 5882 5882 5883 5885 5886 5886
5909 5910 5910 5910 5911 5912 5911 5909 5907 5906 5902 5901 5900 5899 5898 5896 5895 5893 5889 5887 5886 5883 5881 5879 5877 5876 5874 5875 5874 5875 5878 5879 5881
5904 5906 5906 5908 5908 5906 5904 5903 5901 5899 5897 5894 5894 5893 5892 5892 5890 5889 5885 5883 5881 5879 5878 5874 5871 5869 5867 5868 5867 5869 5871 5872 5874
5902 5901 5902 5902 5902 5901 5899 5897 5896 5894 5891 5888 5887 5886 5885 5885 5884 5883 5881 5878 5876 5875 5873 5869 5866 5864 5862 5861 5862 5864 5865 5867 5868
5896 5897 5897 5896 5896 5895 5893 5891 5890 5888 5885 5883 5880 5879 5878 5878 5877 5876 5875 5872 5870 5869 5866 5865 5862 5859 5858 5857 5857 5858 5860 5862 5863
5892 5893 5892 5890 5889 5887 5886 5884 5884 5882 5879 5877 5876 5874 5872 5871 5870 5870 5868 5866 5863 5858 5858 5859 5856 5853 5852 5852 5852 5853 5853 5854 5857
5885 5885 5883 5881 5880 5879 5878 5877 5875 5873 5872 5870 5868 5866 5865 5863 5862 5861 5860 5859 5856 5853 5853 5853 5851 5850 5848 5846 5846 5847 5847 5848 5849
5879 5877 5876 5875 5872 5870 5869 5867 5865 5863 5863 5861 5858 5858 5857 5855 5855 5854 5853 5852 5850 5848 5846 5846 5847 5847 5846 5845 5844 5842 5841 5841 5842
5867 5866 5866 5866 5865 5861 5858 5856 5856 5854 5853 5852 5851 5850 5849 5848 5847 5847 5846 5842 5836 5836 5834 5831 5829 5832 5836 5837 5838 5838 5838 5839 5836
5859 5859 5858 5857 5856 5854 5850 5847 5845 5845 5843 5842 5841 5842 5842 5840 5838 5837 5834 5831 5823 5825 5826 5827 5828 5823 5821 5825 5828 5830 5833 5836 5837
5850 5849 5847 5847 5844 5843 5842 5839 5836 5833 5831 5830 5831 5831 5832 5831 5829 5826 5824 5821 5818 5813 5816 5822 5814 5814 5818 5817 5817 5821 5826 5827 5828
5839 5837 5835 5834 5833 5833 5831 5830 5827 5823 5821 5817 5817 5818 5818 5819 5819 5817 5814 5812 5810 5811 5805 5810 5810 5803 5796 5806 5809 5811 5813 5816 5819